This is the latest recevied weather packets stored in our database for station/object KC3ELT-10. If no packets are shown the sender has not sent any weather packets the latest 10 day(s).
| Time | Temp. | Humidity | Pressure | Rain* | Wind** | Luminosity | Snow |
|---|---|---|---|---|---|---|---|
| 1777871879 | 9.44° C | 48% | 1008.2 hPa | 0 mm | 0.89 m/s, 228° | - | - |
| 1777871579 | 9.44° C | 47% | 1008.3 hPa | 0 mm | 0.45 m/s, 240° | - | - |
| 1777871279 | 10° C | 47% | 1008.3 hPa | 0 mm | 0.89 m/s, 257° | - | - |
| 1777870979 | 10° C | 46% | 1008.3 hPa | 0 mm | 0.45 m/s, 167° | - | - |
| 1777870679 | 10° C | 46% | 1008.3 hPa | 0 mm | 0.45 m/s, 230° | - | - |
| 1777870379 | 10° C | 46% | 1008.3 hPa | 0 mm | 3.13 m/s, 248° | - | - |
| 1777870079 | 9.44° C | 47% | 1008.3 hPa | 0 mm | 1.34 m/s, 247° | - | - |
| 1777869779 | 9.44° C | 47% | 1008.2 hPa | 0 mm | 1.79 m/s, 255° | - | - |
| 1777869479 | 9.44° C | 47% | 1008.2 hPa | 0 mm | 1.79 m/s, 277° | - | - |
| 1777869179 | 9.44° C | 47% | 1008.2 hPa | 0 mm | 1.34 m/s, 265° | - | - |
| 1777868879 | 9.44° C | 47% | 1008 hPa | 0 mm | 0.45 m/s, 169° | - | - |
| 1777868579 | 9.44° C | 47% | 1008 hPa | 0 mm | 1.34 m/s, 236° | - | - |
| 1777868279 | 9.44° C | 47% | 1008 hPa | 0 mm | 1.34 m/s, 234° | - | - |
| 1777867979 | 9.44° C | 47% | 1007.9 hPa | 0 mm | 0.89 m/s, 254° | - | - |
| 1777867679 | 10° C | 47% | 1007.9 hPa | 0 mm | 0 m/s | - | - |
| 1777867379 | 10° C | 46% | 1007.9 hPa | 0 mm | 0.45 m/s, 220° | - | - |
| 1777867079 | 10° C | 46% | 1007.8 hPa | 0 mm | 0.89 m/s, 255° | - | - |
| 1777866779 | 10° C | 45% | 1007.8 hPa | 0 mm | 2.68 m/s, 251° | - | - |
| 1777866479 | 10° C | 45% | 1007.8 hPa | 0 mm | 0.89 m/s, 288° | - | - |
| 1777866179 | 10° C | 45% | 1007.8 hPa | 0 mm | 2.68 m/s, 254° | - | - |
| 1777865878 | 10.56° C | 45% | 1007.8 hPa | 0 mm | 1.79 m/s, 269° | - | - |
| 1777865579 | 10.56° C | 45% | 1007.8 hPa | 0 mm | 2.24 m/s, 279° | - | - |
| 1777865279 | 10.56° C | 45% | 1007.8 hPa | 0 mm | 0.89 m/s, 272° | - | - |
| 1777864979 | 10.56° C | 45% | 1007.8 hPa | 0 mm | 0.45 m/s, 267° | - | - |
| 1777864679 | 10.56° C | 44% | 1007.8 hPa | 0 mm | 0.89 m/s, 199° | - | - |
* Rain latest hour (hover to see other rain measurements)
** Current wind speed in m/s (hover to see current wind gust speed)